{"data":{"norad_id":66162,"intl_designator":"2025-240S","name":"STARLINK-35633","alt_names":[],"object_type":"PAYLOAD","status":"ACTIVE","operator":null,"country":"US","launch_date":"2025-10-25","launch_site_code":"AFWTR","launch_vehicle":null,"mission":null,"orbit_class":"UNKNOWN","rcs_meters":null,"size_class":null,"mass_kg":null,"dimensions":null,"purposes":["comms"],"wikipedia_slug":null,"has_3d_model":false,"image_url":null,"decayed_at":null,"tle_current":{"epoch":"2026-09-20T22:13:25.455648Z","epoch_age_seconds":63630,"freshness":"FRESH","line1":"1 66162U 25240S   26263.92598907  .00020619  00000+0  61963-3 0  9997","line2":"2 66162  53.1575 233.5632 0001116 308.1382  51.9520 15.34403084 51917","mean_motion":15.34403084,"eccentricity":0.0001116,"inclination_deg":53.1575,"raan_deg":233.5632,"arg_perigee_deg":308.1382,"mean_anomaly_deg":51.952,"bstar":0.00061963,"rev_number":5191,"period_min":93.847569456527,"perigee_km":461.93063717669,"apogee_km":463.45751067239,"semimajor_km":6840.8310739245,"source":"CELESTRAK","updated_at":"2026-09-21T09:00:35.815580Z"}}}